[Date Prev][Date Next][Thread Prev][Thread Next] - [Date Index][Thread Index][Author Index]

2 Line ISS Keps 1-25



ISS
1 25544U 98067A   05025.26828824  .00022259  00000-0  18298-3 0  6686
2 25544  51.6468 271.6593 0009319  28.5522  73.4561 15.70295523353210
----
Via the sarex mailing list at AMSAT.ORG courtesy of AMSAT-NA.
To unsubscribe, send "unsubscribe sarex" to Majordomo@amsat.org



AMSAT Top AMSAT Home